TimeMST,TemperatureF,Dew PointF,Humidity,Sea Level PressureIn,VisibilityMPH,Wind Direction,Wind SpeedMPH,Gust SpeedMPH,PrecipitationIn,Events,Conditions,WindDirDegrees,DateUTC
12:29 AM,15.8,10.4,79,30.30,10.0,Calm,Calm,-,N/A,,Scattered Clouds,0,2013-01-21 07:29:00
12:53 AM,14.0,9.0,80,30.47,10.0,Calm,Calm,-,N/A,,Partly Cloudy,0,2013-01-21 07:53:00
1:53 AM,9.0,7.0,92,30.48,10.0,NNE,5.8,-,N/A,,Clear,20,2013-01-21 08:53:00
2:53 AM,10.0,6.1,84,30.46,10.0,Calm,Calm,-,N/A,,Clear,0,2013-01-21 09:53:00
3:53 AM,8.1,6.1,92,30.43,10.0,Calm,Calm,-,N/A,,Clear,0,2013-01-21 10:53:00
4:53 AM,8.1,5.0,87,30.41,10.0,Calm,Calm,-,N/A,,Scattered Clouds,0,2013-01-21 11:53:00
5:53 AM,10.9,9.0,92,30.39,10.0,West,3.5,-,N/A,,Overcast,260,2013-01-21 12:53:00
6:53 AM,10.9,7.0,84,30.40,10.0,NE,3.5,-,N/A,,Mostly Cloudy,50,2013-01-21 13:53:00
7:53 AM,12.9,9.0,84,30.39,10.0,Calm,Calm,-,N/A,,Overcast,0,2013-01-21 14:53:00
8:53 AM,15.1,10.0,80,30.40,9.0,ENE,4.6,-,N/A,,Overcast,60,2013-01-21 15:53:00
9:53 AM,17.1,12.0,81,30.42,10.0,NE,5.8,-,N/A,,Overcast,40,2013-01-21 16:53:00
10:53 AM,19.9,12.9,74,30.40,10.0,NE,5.8,-,N/A,,Scattered Clouds,40,2013-01-21 17:53:00
11:53 AM,21.0,12.9,71,30.36,10.0,Calm,Calm,-,N/A,,Overcast,0,2013-01-21 18:53:00
12:53 PM,21.9,14.0,72,30.32,9.0,Calm,Calm,-,N/A,,Overcast,0,2013-01-21 19:53:00
1:53 PM,25.0,15.1,66,30.30,10.0,NNE,3.5,-,N/A,,Scattered Clouds,30,2013-01-21 20:53:00
2:53 PM,26.1,15.1,63,30.28,9.0,Calm,Calm,-,N/A,,Scattered Clouds,0,2013-01-21 21:53:00
3:53 PM,28.0,15.1,58,30.26,10.0,Calm,Calm,-,N/A,,Partly Cloudy,0,2013-01-21 22:53:00
4:53 PM,25.0,15.1,66,30.27,9.0,NNE,4.6,-,N/A,,Mostly Cloudy,30,2013-01-21 23:53:00
5:53 PM,24.1,16.0,71,30.24,10.0,ENE,6.9,-,N/A,,Overcast,70,2013-01-22 00:53:00
6:53 PM,23.0,15.1,72,30.25,10.0,North,8.1,-,N/A,,Overcast,10,2013-01-22 01:53:00
7:53 PM,19.9,14.0,78,30.25,10.0,NE,5.8,-,N/A,,Overcast,50,2013-01-22 02:53:00
8:53 PM,18.0,12.9,81,30.25,10.0,NE,3.5,-,N/A,,Partly Cloudy,50,2013-01-22 03:53:00
9:53 PM,17.1,12.9,84,30.23,10.0,Calm,Calm,-,N/A,,Clear,0,2013-01-22 04:53:00
10:53 PM,14.0,10.9,88,30.25,9.0,NNE,4.6,-,N/A,,Mostly Cloudy,20,2013-01-22 05:53:00
11:53 PM,16.0,12.0,84,30.22,9.0,Calm,Calm,-,N/A,,Partly Cloudy,0,2013-01-22 06:53:00